Flag for U.S.A. Weather past 2 weeks in Lexington-Fayette, Kentucky, U.S.A.

Now
80 °F

Sunny.


Feels Like: 82 °F
Forecast: 64 / 84 °F
Wind: 14 mph from South

Location: Blue Grass Airport

Current Time: May 30, 2015 at 12:36:14 PM

Latest Report: May 30, 2015 at 11:54 AM


Visibility: 10 mi

Pressure: 30.08 "Hg

Humidity: 64%

Dew point: 67 °F

Location of Lexington-FayetteLocation

Historic Weather in Lexington-Fayette — Graph

°F

Lexington-Fayette temperature yesterday

Maximum temperature yesterday: 80 °F (at 12:54 PM)
Minimum temperature yesterday: 65 °F (at 1:54 AM)
Average temperature yesterday: 73 °F

Past Weeks' High & Low Weather Summary

 TemperatureHumidityPressure
High83 °F (May 15, 2:54 PM)97% (May 19, 2:54 AM)30.39 "Hg (May 19, 2:54 AM)
Low42 °F (May 22, 3:54 AM)30% (May 23, 3:54 PM)29.93 "Hg (May 21, 12:54 AM)
Average68 °F73%30.14 "Hg
* Reported May 15 10:54 AM — May 30 10:54 AM, Lexington-Fayette, Weather by CustomWeather, © 2015

Note: Actual official high and low records may vary slightly from our data, if they occured in-between our weather recording intervals... More about our weather records

Advertising

Lexington-Fayette weather history for previous 24 hours

 ConditionsComfort  
Time TempWeatherWind HumidityBarometerVisibility
10:54 AM
Sat, May 30
77 °FPartly sunny.12 mph66%30.09 "Hg10 mi
9:54 AM75 °FPartly sunny.10 mph74%30.09 "Hg10 mi
8:54 AM72 °FScattered clouds.9 mph81%30.09 "Hg10 mi
7:54 AM71 °FOvercast.9 mph81%30.09 "Hg10 mi
6:54 AM68 °FPassing clouds.8 mph87%30.08 "Hg10 mi
5:54 AM69 °FMostly cloudy.7 mph84%30.08 "Hg10 mi
4:54 AM68 °FClear.7 mph84%30.06 "Hg10 mi
3:54 AM69 °FPassing clouds.7 mph84%30.07 "Hg10 mi
2:54 AM68 °FPassing clouds.8 mph87%30.08 "Hg10 mi
1:54 AM70 °FClear.8 mph81%30.08 "Hg10 mi
12:54 AM71 °FClear.8 mph78%30.08 "Hg10 mi
11:54 PM
Fri, May 29
72 °FOvercast.8 mph76%30.09 "Hg10 mi
10:54 PM73 °FPassing clouds.7 mph76%30.10 "Hg10 mi
9:54 PM74 °FMostly cloudy.8 mph76%30.09 "Hg10 mi
8:54 PM74 °FSunny.3 mph74%30.07 "Hg10 mi
7:54 PM78 °FSunny.9 mph64%30.06 "Hg10 mi
6:54 PM79 °FSunny.12 mph62%30.06 "Hg10 mi
5:54 PM80 °FSunny.14 mph64%30.07 "Hg10 mi
4:54 PM80 °FSunny.13 mph64%30.09 "Hg10 mi
3:54 PM80 °FSunny.12 mph71%30.11 "Hg10 mi
2:54 PM72 °FPartly sunny.No wind87%30.14 "Hg10 mi
1:54 PM78 °FBroken clouds.10 mph66%30.15 "Hg10 mi
12:54 PM80 °FPassing clouds.15 mph62%30.16 "Hg10 mi
Weather by CustomWeather, © 2015

See weather overviewHow to use our weather pages